{"data":{"norad_id":48998,"intl_designator":"2021-060AH","name":"ONEWEB-0280","alt_names":[],"object_type":"PAYLOAD","status":"ACTIVE","operator":null,"country":"UK","launch_date":"2021-07-01","launch_site_code":"VOSTO","launch_vehicle":null,"mission":null,"orbit_class":"UNKNOWN","rcs_meters":null,"size_class":null,"mass_kg":null,"dimensions":null,"purposes":["comms"],"wikipedia_slug":null,"has_3d_model":false,"image_url":null,"decayed_at":null,"tle_current":{"epoch":"2026-09-19T16:14:55.734144Z","epoch_age_seconds":93130,"freshness":"FRESH","line1":"1 48998U 21060AH  26262.67703396  .00000029  00000+0  42884-4 0  9996","line2":"2 48998  87.9154 210.0170 0001736  73.0504 287.0817 13.16594626251993","mean_motion":13.16594626,"eccentricity":0.0001736,"inclination_deg":87.9154,"raan_deg":210.017,"arg_perigee_deg":73.0504,"mean_anomaly_deg":287.0817,"bstar":4.2884e-5,"rev_number":25199,"period_min":109.37307289298,"perigee_km":1196.440076676,"apogee_km":1199.0704264658,"semimajor_km":7575.8922515709,"source":"CELESTRAK","updated_at":"2026-09-20T09:00:44.629452Z"}}}